Showing default

HAWK-2C, 47502

Orbit data source: Space-Track

HAWK-2C, 47502 is a payload satellite owned by HawkEye 360 (US) in SSO that was launched on Sun, 24 Jan 2021 UTC via an FALCON 9 launch vehicle from the Air Force Eastern Test Range (AFETR). Payload-class satellites include a variety of spacecraft equipped with specific instruments for various scientific and technological missions. These include communications satellites like Starlink; space stations such as the ISS; scientific satellites like the Hubble; Earth observation satellites from companies like Planet Labs, Umbra, and HawkEye 360; GPS; miniature CubeSats for education and research; and military/defense satellites.

Loading next visibility...
Identifier
47502, 2021-006CT
Orbit
SSO
Country
Flag of USUS
Related business
Manufacturer
UTIAS-SFL
Mission
Operational Commercial Sigint
Bus & Motor
DEFIANT, Unknown motor
Mass
31 kg wet, 30 kg dry
Launch date (UTC)
2021-01-24 (5 years ago)
Launch vehicle
FALCON 9
Launch site
Air Force Eastern Test Range (AFETR)
Object type
Payload
Rocket body
Debris
Shape & HBR
Box + 2 Pan, 1.0 m
Radar Cross Section
0.348 m², Medium (>0.1 m² and < 1m²)

Expand to show TLE details & history
Last TLE update: 2 days ago

TLE from 2 days ago
0 HAWK-2C
1 47502U 21006CT  26171.15159575  .00005134  00000-0  15492-3 0  9999
2 47502  97.2275 215.4025 0007027 175.4845 184.6464 15.34692888299952
Epoch: 2026-06-20T03:38Z
TLE epoch observation values (Epoch: 2026-06-20T03:38:17.872Z)
Latitude
0.00003°
Longitude
-107.5423°
Altitude
469.74 km
Speed
7.629 km/s
True Right ascension
14h 21m 36s
True Declination
0° 00' 00"
Sunlit
Object was in full shadow at epoch
Visualization orbit readout
Latitude
Unknown
Longitude
Unknown
Altitude
Unknown
Speed
Unknown
Apparent Right ascension
Unknown
Apparent Declination
Unknown
Sunlit
N/A
Visualization observer readout
Local Sidereal Time
21:41:00
Azimuth
Unknown
Elevation
Unknown
Doppler factor
Unknown
Orbital elements
Apogee altitude
463.576 km
Perigee altitude
453.967 km
Semi-major axis
6,836.909 km
Eccentricity
0.0007
Inclination
97.2275°
RAAN
215.4025°
Arg. of periapsis
175.4845°
True anomaly
184.63988°
Mean anomaly
184.6464°
Eccentric anomaly
184.64314°
Mean motion
3.83931 °/min
Orbital period
93.77 mins
BSTAR
0.00015492
Loading maneuver chart data...
Computing Atmospheric mass density...

Documentation

Showing up to 5 results
|